Find Kosmos-2539

NORAD ID: 44457 Int'l Des: 2019-048 Owner: VVKOV/VOENT Country: RU operational
HEOCIRCULARGSOGEO

Live Position

Loading 3D Globe...

About Kosmos-2539

Description loading...

Upcoming Passes

Passes for default location (London). Set your location on the main map for personalized predictions.

Altitude History

Loading altitude history...

Two-Line Element Set

1 44457U 19048A 26104.87422025 .00000086 00000-0 00000+0 0 9992
2 44457 0.0240 117.9812 0000115 74.9820 336.8062 1.00268729 24591
Epoch: Apr 14, 2026 • Age: 6 hours

Current Status

Altitude 35786.7 km
Velocity 3.07 km/s
Sub-Earth Point 0.02°N, 12°E
Launch Date Aug 5, 2019
Age 6.6 years
Type other

Technical Details

Classification Payload
Mass 3162.00 kg
Dry Mass 2000.00 kg
Total Mass 3162.00 kg
Length 6.00 m
Diameter 2.00 m
Span 27.00 m
Shape Cyl + 2 Pan
Manufacturer RESH
Bus Type Ekspress-2000
Phase Status In Orbit
Owner/State VVKOV/VOENT/RU

Most Searched